[[{"header":{"parameterUnit":"m.s-1","parameterCategory":1,"la1":30.2991,"la2":30.254,"lo1":-89.0895,"lo2":-89.0444,"dy":0.0017,"dx":0.0017,"nx":28,"ny":28,"refTime":"2024-07-03T03:00:00:Z","depth":0,"parameterNumber":2,"parameterNumberName":"U-component_of_WINDS"},"data":[0,0,0,0,0,0,0,0,0,0,0,0,0,0,0,0,0,0,0,0,0,0,0,0,0,0,0,0,0,0,0,0,0,0,0,0,0,0,0,0,0,0,0,0,0,0,0,0,0,0,0,0,0,0,0,0,0,0,-0.644,-0.644,0,-0.6489,-0.6489,-0.649,-0.6586,-0.6588,-0.659,-0.6592,-0.6638,-0.6638,-0.6637,0,0,0,0,0,0,0,0,0,0,0,0,0,-0.6426,-0.6426,-0.644,-0.644,-0.6441,-0.6489,-0.6489,-0.649,-0.6586,-0.6588,-0.6591,-0.6593,-0.6639,-0.6638,-0.6637,0,0,0,0,0,0,0,0,0,0,0,0,0,-0.6449,-0.6426,-0.644,-0.6495,-0.65,-0.6488,-0.6489,-0.649,-0.6585,-0.6588,-0.6591,-0.6594,-0.6639,-0.6638,-0.6637,-0.6575,0,0,-0.6635,-0.6634,0,0,0,0,0,0,0,0,-0.6448,-0.645,-0.6486,-0.6491,-0.6497,-0.6534,-0.6502,-0.6518,-0.6585,-0.6553,-0.6592,-0.6595,-0.6601,-0.6604,-0.6606,-0.6577,-0.6579,-0.6635,-0.6634,-0.6634,-0.6634,0,0,0,0,0,0,0,-0.6446,-0.6448,-0.6459,-0.6486,-0.6493,-0.6516,-0.6522,-0.6505,-0.656,-0.6556,-0.6563,-0.6568,-0.6605,-0.6607,-0.6608,-0.658,-0.6635,-0.6634,-0.6633,-0.6633,-0.6501,-0.6498,0,0,0,0,0,0,-0.6437,-0.6446,-0.6458,-0.6461,-0.6479,-0.6514,-0.6521,-0.6519,-0.6561,-0.657,-0.6565,-0.6572,-0.6607,-0.6609,-0.661,-0.654,-0.6634,-0.6633,-0.6633,-0.6504,-0.65,-0.6497,0,0,0,0,0,0,-0.6436,-0.6437,-0.6456,-0.6455,-0.6459,-0.6511,-0.6508,-0.6519,-0.6521,-0.6568,-0.6578,-0.6558,-0.6609,-0.6611,-0.6583,-0.6543,-0.6633,-0.6632,-0.6507,-0.6502,-0.6498,-0.6398,0,0,0,0,0,0,-0.6435,-0.6436,-0.6414,-0.6454,-0.6459,-0.6428,-0.6506,-0.6518,-0.652,-0.6529,-0.6563,-0.6572,-0.6612,-0.6584,-0.6582,-0.6543,-0.6631,-0.6511,-0.6505,-0.65,-0.6405,-0.639,-0.6378,0,0,0,0,0,-0.6435,-0.6383,-0.6412,-0.6413,-0.6432,-0.6426,-0.6428,-0.6477,-0.6516,-0.6494,-0.6524,-0.6571,-0.6547,-0.658,-0.6579,-0.6539,-0.6514,-0.6507,-0.65,-0.6411,-0.6393,-0.6378,0,0,0,0,0,0,-0.6335,-0.6389,-0.6422,-0.6382,-0.6399,-0.6442,-0.6415,-0.6456,-0.6461,-0.6469,-0.6528,-0.6535,-0.6498,-0.6516,-0.6551,-0.648,-0.6538,-0.6531,-0.647,-0.6454,-0.644,-0.6437,-0.6631,0,0,0,0,0,-0.6309,-0.63,-0.6347,-0.6307,-0.6314,-0.6363,-0.6362,-0.6397,-0.6416,-0.6424,-0.6451,-0.6467,-0.6463,-0.646,-0.6459,-0.6408,-0.6416,-0.638,-0.6366,-0.6355,-0.6348,-0.6321,-0.6306,-0.6474,-0.6474,-0.6474,0,0,-0.6254,-0.6282,-0.6273,-0.6288,-0.6305,-0.6294,-0.6368,-0.6353,-0.6344,-0.6421,-0.6396,-0.6417,-0.6438,-0.6398,-0.6382,-0.6412,-0.6303,-0.6346,-0.6337,-0.6336,-0.6313,-0.6297,-0.6282,-0.647,-0.647,-0.6471,0,0,-0.6148,-0.6169,-0.6138,-0.6153,-0.6179,-0.6212,-0.6204,-0.6241,-0.6258,-0.6234,-0.6291,-0.6281,-0.6274,-0.6287,-0.6292,-0.6191,-0.6234,-0.6189,-0.6118,-0.6091,-0.6078,-0.6066,-0.603,-0.6016,-0.6181,-0.6181,-0.6181,0,-0.6076,-0.6063,-0.6116,-0.6098,-0.6102,-0.6172,-0.614,-0.6152,-0.6175,-0.6176,-0.621,-0.6202,-0.6221,-0.6184,-0.616,-0.6162,-0.6154,-0.6185,-0.6076,-0.6065,-0.6055,-0.602,-0.6006,-0.6175,-0.6176,-0.6177,-0.6177,0,-0.5973,-0.5962,-0.5934,-0.5955,-0.5957,-0.5931,-0.598,-0.5975,-0.601,-0.6039,-0.6013,-0.6039,-0.6044,-0.6038,-0.6072,-0.6006,-0.6024,-0.6065,-0.6124,-0.6032,-0.6001,-0.5988,-0.6167,-0.6169,-0.6171,-0.6172,0,0,-0.5806,-0.5858,-0.5846,-0.5857,-0.589,-0.5882,-0.5859,-0.5865,-0.5859,-0.5872,-0.5854,-0.5846,-0.5885,-0.5891,-0.5927,-0.5904,-0.5821,-0.5949,-0.595,-0.5924,-0.5749,-0.5717,-0.5701,-0.585,-0.5848,-0.5846,-0.5747,0,-0.5707,-0.5673,-0.572,-0.5675,-0.5665,-0.5731,-0.5711,-0.5728,-0.5754,-0.5749,-0.5777,-0.577,-0.5822,-0.5826,-0.5807,-0.5835,-0.5787,-0.5843,-0.5832,-0.5831,-0.5825,-0.5685,-0.5651,-0.5557,-0.5735,-0.5733,-0.5731,0,-0.5588,-0.5596,-0.555,-0.5585,-0.5583,-0.5564,-0.5574,-0.5568,-0.5588,-0.5609,-0.5615,-0.5658,-0.5637,-0.5694,-0.5666,-0.5703,-0.5701,-0.5715,-0.5712,-0.5713,-0.5776,-0.5681,-0.5528,-0.5513,-0.5713,-0.5714,-0.5716,0,-0.5471,-0.547,-0.5443,-0.5449,-0.549,-0.5475,-0.5491,-0.5514,-0.5515,-0.5522,-0.5523,-0.5527,-0.553,-0.5532,-0.5574,-0.5612,-0.554,-0.5601,-0.5555,-0.5554,-0.5537,-0.5537,-0.5381,-0.5536,-0.5536,-0.5536,-0.5537,0,-0.5356,-0.5325,-0.539,-0.5373,-0.534,-0.5394,-0.5359,-0.5382,-0.5401,-0.5389,-0.5445,-0.5432,-0.549,-0.5482,-0.5515,-0.5485,-0.5486,-0.5501,-0.551,-0.5496,-0.5494,-0.5496,-0.5503,-0.5533,-0.5533,-0.5534,-0.5535,0,-0.5219,-0.5262,-0.5236,-0.5277,-0.5286,-0.526,-0.5294,-0.5279,-0.5308,-0.5291,-0.529,-0.5336,-0.533,-0.5373,-0.5375,-0.5397,-0.5351,-0.5372,-0.5345,-0.5351,-0.5303,-0.5306,-0.5142,-0.5122,-0.529,-0.5288,-0.5287,0,-0.5143,-0.5121,-0.5159,-0.5155,-0.5168,-0.5161,-0.5162,-0.5214,-0.5212,-0.5233,-0.5215,-0.5214,-0.5216,-0.5203,-0.5236,-0.5237,-0.5257,-0.52,-0.5258,-0.5244,-0.5256,-0.5257,-0.5254,-0.5187,-0.5185,-0.5183,-0.5182,0,-0.5004,-0.5026,-0.5026,-0.5032,-0.5032,-0.504,-0.5051,-0.5044,-0.51,-0.5095,-0.509,-0.5091,-0.5093,-0.5091,-0.5098,-0.5114,-0.5156,-0.5163,-0.5153,-0.5138,-0.5123,-0.513,-0.5311,-0.5167,-0.5168,-0.517,-0.517,-0.5171,-0.4895,-0.4878,-0.4902,-0.49,-0.4914,-0.4923,-0.4911,-0.4939,-0.4936,-0.4942,-0.4972,-0.4961,-0.4981,-0.4996,-0.5006,-0.4998,-0.5026,-0.501,-0.5007,-0.5002,-0.4993,-0.5124,-0.4999,-0.5,-0.5,-0.5001,-0.5001,0,-0.4759,-0.4777,-0.4774,-0.4789,-0.4786,-0.4828,-0.4842,-0.4837,-0.4827,-0.4842,-0.4843,-0.4836,-0.4834,-0.4866,-0.4867,-0.4854,-0.4873,-0.4852,-0.4854,-0.4856,-0.4968,-0.4977,-0.4837,-0.4837,-0.4837,-0.4837,-0.4837,-0.4837,-0.4687,-0.4661,-0.4685,-0.4666,-0.4684,-0.4675,-0.4679,-0.4687,-0.47,-0.469,-0.4689,-0.471,-0.4731,-0.4735,-0.4734,-0.4743,-0.4741,-0.4713,-0.4729,-0.4833,-0.4849,-0.4864,-0.4873,-0.4712,-0.4712,-0.4618,-0.4617,-0.4616]},{"header":{"parameterUnit":"m.s-1","parameterCategory":1,"la1":30.2991,"la2":30.254,"lo1":-89.0895,"lo2":-89.0444,"dy":0.0017,"dx":0.0017,"nx":28,"ny":28,"refTime":"2024-07-03T03:00:00:Z","depth":0,"parameterNumber":3,"parameterNumberName":"V-component_of_WINDS"},"data":[0,0,0,0,0,0,0,0,0,0,0,0,0,0,0,0,0,0,0,0,0,0,0,0,0,0,0,0,0,0,0,0,0,0,0,0,0,0,0,0,0,0,0,0,0,0,0,0,0,0,0,0,0,0,0,0,0,0,2.5296,2.5295,0,2.5163,2.5162,2.516,2.5057,2.5055,2.5055,2.5054,2.4918,2.4916,2.4913,0,0,0,0,0,0,0,0,0,0,0,0,0,2.5461,2.5459,2.5296,2.5295,2.5293,2.5163,2.5162,2.516,2.5057,2.5055,2.5054,2.5053,2.4919,2.4916,2.4913,0,0,0,0,0,0,0,0,0,0,0,0,0,2.5365,2.5458,2.5297,2.5226,2.5218,2.5164,2.5161,2.5159,2.5057,2.5055,2.5054,2.5053,2.492,2.4916,2.4912,2.4917,0,0,2.49,2.4898,0,0,0,0,0,0,0,0,2.5371,2.5359,2.5238,2.5231,2.5222,2.5125,2.517,2.5078,2.5057,2.5118,2.5054,2.5052,2.4988,2.4978,2.4957,2.4911,2.4905,2.49,2.4897,2.4895,2.4894,0,0,0,0,0,0,0,2.5377,2.5364,2.5244,2.5236,2.5227,2.5201,2.5185,2.5152,2.5063,2.5113,2.5105,2.5091,2.4984,2.4961,2.4953,2.4903,2.49,2.4896,2.4894,2.4892,2.4855,2.4857,0,0,0,0,0,0,2.5395,2.537,2.5248,2.524,2.5294,2.5199,2.5182,2.5158,2.5063,2.5047,2.5092,2.5086,2.4969,2.4958,2.4948,2.4948,2.4895,2.4892,2.4889,2.4854,2.4856,2.4857,0,0,0,0,0,0,2.5399,2.5385,2.5253,2.5303,2.5284,2.5198,2.5171,2.5156,2.5133,2.5048,2.5031,2.5085,2.4967,2.4953,2.4926,2.4942,2.489,2.4886,2.4852,2.4854,2.4856,2.495,0,0,0,0,0,0,2.5404,2.5387,2.5388,2.5304,2.5282,2.5234,2.5172,2.5154,2.5126,2.5118,2.5037,2.5022,2.4965,2.4932,2.4922,2.4936,2.4883,2.485,2.4853,2.4856,2.4945,2.4955,2.4963,0,0,0,0,0,2.541,2.542,2.5389,2.5375,2.5282,2.5235,2.5222,2.5156,2.5128,2.5129,2.5074,2.5025,2.4942,2.493,2.4918,2.4931,2.4849,2.4852,2.4856,2.4941,2.4953,2.4963,0,0,0,0,0,0,2.5509,2.5408,2.5372,2.5355,2.5304,2.5218,2.5216,2.5171,2.5128,2.5121,2.504,2.5023,2.5004,2.4964,2.4953,2.4931,2.4889,2.489,2.4958,2.4969,2.4978,2.4989,2.488,0,0,0,0,0,2.5529,2.55,2.5412,2.5405,2.5382,2.5304,2.5281,2.5234,2.5178,2.5157,2.5099,2.5048,2.501,2.4987,2.4947,2.4938,2.4919,2.494,2.495,2.4958,2.496,2.4953,2.4961,2.4868,2.4868,2.4868,0,0,2.557,2.551,2.5497,2.5424,2.5379,2.5351,2.5286,2.5259,2.5237,2.5152,2.5123,2.508,2.5016,2.4998,2.4987,2.4964,2.4981,2.4962,2.4969,2.4967,2.4957,2.4966,2.4974,2.487,2.4869,2.4869,0,0,2.563,2.5582,2.5571,2.5527,2.546,2.5408,2.5406,2.5325,2.5293,2.5262,2.5198,2.5171,2.5107,2.5065,2.5035,2.5078,2.5032,2.5067,2.5117,2.5111,2.5118,2.5124,2.5141,2.5148,2.507,2.507,2.507,0,2.5689,2.5644,2.5571,2.5548,2.5518,2.5438,2.5427,2.5388,2.5312,2.5293,2.5268,2.5187,2.5138,2.511,2.512,2.5098,2.5093,2.5078,2.5123,2.5128,2.5133,2.5148,2.5155,2.5075,2.5074,2.5074,2.5073,0,2.5721,2.569,2.5689,2.5618,2.5587,2.557,2.5495,2.5472,2.5428,2.5378,2.5348,2.5287,2.5234,2.5223,2.5179,2.5188,2.5176,2.5138,2.5095,2.5148,2.5161,2.5166,2.5082,2.508,2.5079,2.5077,0,0,2.5842,2.5729,2.573,2.5697,2.5617,2.5592,2.5571,2.5518,2.5502,2.5451,2.5432,2.5379,2.5344,2.531,2.526,2.5255,2.5294,2.5217,2.5214,2.5235,2.5302,2.5333,2.5341,2.5262,2.5263,2.5263,2.5308,0,2.589,2.5849,2.5782,2.5762,2.5734,2.5657,2.5639,2.5588,2.5541,2.551,2.5457,2.5422,2.5376,2.5356,2.5346,2.5292,2.5307,2.5287,2.5245,2.5244,2.5266,2.5347,2.5379,2.5425,2.5312,2.5313,2.5313,0,2.5943,2.5897,2.5874,2.5796,2.5781,2.5766,2.5713,2.5684,2.5624,2.559,2.5553,2.5498,2.5472,2.5431,2.5395,2.5383,2.5361,2.5331,2.5331,2.5327,2.5284,2.5347,2.5437,2.5445,2.532,2.532,2.5319,0,2.6036,2.5968,2.5945,2.5919,2.5827,2.5818,2.5779,2.5718,2.5691,2.5644,2.5626,2.5577,2.555,2.5514,2.5447,2.5424,2.5419,2.5372,2.5391,2.5393,2.5395,2.5397,2.5486,2.5378,2.5378,2.5378,2.5378,0,2.6099,2.6088,2.5986,2.5973,2.5959,2.5882,2.587,2.5824,2.577,2.5747,2.5677,2.5657,2.5569,2.5539,2.5486,2.5465,2.5453,2.5425,2.5412,2.5433,2.5437,2.542,2.5416,2.5379,2.5379,2.5379,2.5378,0,2.6201,2.6132,2.6103,2.6018,2.5996,2.599,2.5917,2.5901,2.5849,2.582,2.5809,2.5728,2.5688,2.5618,2.5558,2.5522,2.5512,2.5488,2.5533,2.5525,2.5549,2.5548,2.5632,2.5639,2.5525,2.5527,2.5528,0,2.6247,2.6237,2.6151,2.613,2.6094,2.6061,2.6033,2.5956,2.593,2.5861,2.5854,2.5808,2.5768,2.5708,2.5644,2.5598,2.5573,2.5605,2.5566,2.5588,2.5576,2.5579,2.5578,2.5616,2.5617,2.5619,2.562,0,2.6337,2.6303,2.6265,2.6215,2.6184,2.614,2.6094,2.6081,2.5993,2.5967,2.5926,2.5895,2.5833,2.5789,2.5734,2.5693,2.5643,2.5632,2.5634,2.5657,2.5684,2.5672,2.556,2.5631,2.563,2.5629,2.5629,2.5628,2.6414,2.6402,2.6339,2.6299,2.6256,2.6214,2.6195,2.614,2.6104,2.6049,2.6005,2.5967,2.5907,2.5827,2.579,2.5759,2.5735,2.5738,2.5739,2.5742,2.5751,2.5687,2.5748,2.5748,2.5747,2.5747,2.5747,0,2.6502,2.6457,2.6421,2.6358,2.6327,2.628,2.6226,2.6203,2.617,2.6118,2.608,2.6032,2.5989,2.5921,2.5873,2.5862,2.5837,2.5852,2.5853,2.5845,2.5774,2.5778,2.5872,2.5872,2.5872,2.5872,2.5872,2.5872,2.6544,2.6522,2.648,2.6436,2.6391,2.6353,2.6327,2.6287,2.6246,2.6196,2.6159,2.6115,2.6056,2.6003,2.5962,2.5942,2.5929,2.5952,2.5926,2.5861,2.585,2.5839,2.5842,2.5949,2.5949,2.5999,2.6,2.6]}]]